Weather Roundup
Issued by NWS Corpus Christi, TX

Home | Current Version | Previous Version | Text Only | Print | Product List | Glossary On
Versions: 1 2 3 4 5 6 7 8 9 10 11 12 13 14 15 16 17 18 19 20 21 22 23 24 25 26 27 28 29 30 31 32 33 34 35 36 37 38 39 40 41 42 43 44 45 46 47 48 49 50
000
ASUS44 KCRP 250910
HRRCRP

SOUTH TEXAS REGIONAL WEATHER ROUNDUP
NATIONAL WEATHER SERVICE CORPUS CHRISTI TX
400 AM CDT SAT OCT 25 2014


TXZ229>244-251000-
...CORPUS CHRISTI AREA OBSERVATIONS...

CITY           SKY/WX    TMP DP  RH WIND       PRES   REMARKS
CORPUS CHRISTI CLEAR     64  61  90 W3        30.12F
NAS CORPUS CHR CLEAR     67  65  93 W6        30.11F
ROCKPORT       CLEAR     63  59  87 CALM      30.12S
KINGSVILLE NAS CLEAR     62  60  93 W3        30.12F
ALICE          CLEAR     64  59  83 W5        30.12F
FALFURRIAS     CLEAR     61  58  90 NW5       30.13S
$$

...VICTORIA AREA OBSERVATIONS...

CITY           SKY/WX    TMP DP  RH WIND       PRES   REMARKS
VICTORIA       CLEAR     58  56  93 NW6       30.13S FOG
BEEVILLE       FAIR      66  60  80 CALM      30.13S
PLEASANTON     CLEAR     61  57  87 CALM      30.15S
SAN ANTONIO    CLEAR     65  58  78 CALM      30.15F
$$

...LAREDO AREA OBSERVATIONS...

CITY           SKY/WX    TMP DP  RH WIND       PRES   REMARKS
LAREDO         CLEAR     69  62  78 SE8       30.16F
COTULLA        CLEAR     66  57  72 SE3       30.14S
DEL RIO        CLEAR     65  61  87 E7        30.12S
MCALLEN        CLEAR     65  64  97 CALM      30.12F
HEBBRONVILLE   CLEAR     62  60  93 SW5       30.15S
$$

...OTHER TEXAS OBSERVATIONS...

CITY           SKY/WX    TMP DP  RH WIND       PRES   REMARKS
BROWNSVILLE    CLEAR     66  65  96 NW3       30.11S
HOUSTON        CLEAR     58  57  97 CALM      30.13S
COL. STATION   CLEAR     62  56  80 CALM      30.13S
AUSTIN         CLEAR     58  57  97 CALM      30.13F
WACO           CLEAR     64  58  80 S8        30.12S
FORT WORTH     CLEAR     66  58  75 S8        30.09S
WICHITA FALLS  CLEAR     64  57  78 S6        30.06S
LUBBOCK        CLEAR     55  48  77 W7        30.16F
EL PASO        CLEAR     61  51  70 N3        30.20S
$$

...MARINE OBSERVATIONS...

STATION/POSITION TIME  SKY/WX   TEMP    WIND        PRES    VSBY  WAVE   SWELL
                                AIR SEA DIR/SP/G                  HT/PER HT/PER
                 (UTC)          (F)     (DEG/KT/KT) (MB)    (MI)  (FT/S) (FT/S)
PORT ARANSAS     0900            77 78   70/  5/  6 1020.4F
BUOY 90 E PORT A 0900            75 81   40/  6/ 10 1019.9F         2/ 5   2/ 5
BUOY 45 SE BAFFI 0900            77 80   60/  8/ 10 1019.0F         3/ 8   3/ 8
BUOY 200 E PT IS 0900            75 81   20/  8/ 10 1018.3F         4/ 7   3/ 7
BUOY 15 E GALVES 0900            73 77   40/  6/  8 1019.2F         1/ 7   2/ 7
$$



USA.gov is the U.S. government's official web portal to all federal, state and local government web resources and services.